Location: Hengforden
(52.3167°N, 6.1333°E)
Time: 16:32:22
(UTC+00:00)

Cosmos 1271 Rocket - Pass Details

Date: 14 June 2025
Orbit: 442 x 474 km, 81.2° (Epoch: 19 July)

Event Time Altitude Azimuth Distance (km) Brightness Sun altitude
Exits shadow 22:15:16 13° 120° (ESE) 1,470 4.6 -12.3°
Maximum altitude 22:16:56 17° 88° (E) 1,284 4.5 -12.4°
Drops below altitude 10° 22:19:20 10° 47° (NE) 1,661 5.6 -12.5°
Sets 22:21:58 0° 27° (NNE) 2,544 7.0 -12.7°
